Roatan, Honduras

8:17 AM CST on February 12, 2016 (GMT -0600)
Roatan International

Weather History for MHRO - September, 2013

Change the Weather History Date:

Thursday, September 19, 2013

  Actual Average Record
Temperature  
Mean Temperature 84 °F -  
Max Temperature 89 °F 86 °F - ()
Min Temperature 78 °F 77 °F - ()
Cooling Degree Days 18    
Growing Degree Days 34 (Base 50)    
Moisture  
Dew Point 77 °F    
Average Humidity 72    
Maximum Humidity 84    
Minimum Humidity 63    
Precipitation  
Precipitation 0.00 in - - ()
Sea Level Pressure  
Sea Level Pressure 29.80 in    
Wind  
Wind Speed 16 mph ()    
Max Wind Speed 34 mph    
Max Gust Speed -    
Visibility 7.3 miles    
Events      
T = Trace of Precipitation, MM = Missing Value Source: Averaged Metar Reports

Daily Weather History Graph

Daily Weather History Graph

Search for Another Location

Airport or City:

Trip Planner

Search our weather history database for the weather conditions in past years. The results will help you decide how hot, cold, wet, or windy it might be!

Date:

Astronomy

Sep. 19, 2013 Rise Set
Actual Time 5:34 AM CST 5:44 PM CST
Civil Twilight 5:13 AM CST 6:06 PM CST
Nautical Twilight 4:48 AM CST 6:31 PM CST
Astronomical Twilight 4:23 AM CST 6:56 PM CST
Moon 5:54 PM CST (9/19) 5:35 AM CST (9/19)
Length of Visible Light 12h 52m
Length of Day
12h 09m
Full, 100% of the Moon is Illuminated
Sep 19
Full
Sep 26
Last Quarter
Oct 4
New
Oct 11
First Quarter
Oct 18
Full

Hourly Weather History & Observations

Time (CST) Temp. Heat Index Dew Point Humidity Pressure Visibility Wind Dir Wind Speed Gust Speed Precip Events Conditions
6:00 AM 83 °F - 76 °F 75% 29.80 in 12 mi ENE 16.1 mph - -   Haze
6:00 AM 82.4 °F 90.9 °F 77.0 °F 84% 29.80 in 6.2 mi ENE 16.1 mph - N/A   Mostly Cloudy
7:00 AM 82.4 °F 90.9 °F 77.0 °F 84% 29.80 in 6.2 mi East 18.4 mph - N/A   Mostly Cloudy
8:00 AM 86.0 °F 96.9 °F 77.0 °F 74% 29.83 in 6.2 mi East 20.7 mph - N/A   Mostly Cloudy
9:00 AM 85 °F - 76 °F 69% 29.86 in 11 mi East 17.3 mph - -   Haze
9:00 AM 86.0 °F 96.9 °F 77.0 °F 74% 29.86 in 6.2 mi East 17.3 mph - N/A   Mostly Cloudy
10:00 AM 86.0 °F 96.9 °F 77.0 °F 74% 29.86 in 6.2 mi East 16.1 mph - N/A   Overcast
11:00 AM 87.8 °F 99.7 °F 77.0 °F 70% 29.86 in 6.2 mi East 17.3 mph - N/A   Mostly Cloudy
12:00 PM 89 °F - 79 °F 67% 29.83 in 11 mi East 33.6 mph - -   Haze
12:00 PM 87.8 °F 99.7 °F 77.0 °F 70% 29.83 in 6.2 mi East 17.3 mph - N/A   Mostly Cloudy
1:00 PM 89.6 °F 102.2 °F 77.0 °F 66% 29.77 in 6.2 mi East 18.4 mph - N/A   Mostly Cloudy
2:00 PM 87.8 °F 99.7 °F 77.0 °F 70% 29.77 in 6.2 mi East 17.3 mph - N/A   Mostly Cloudy
3:00 PM 88 °F - 77 °F 63% 29.76 in 10 mi East 19.6 mph - -   Haze
3:00 PM 87.8 °F 99.7 °F 77.0 °F 70% 29.74 in 6.2 mi East 19.6 mph - N/A   Mostly Cloudy
4:00 PM 87.8 °F 99.7 °F 77.0 °F 70% 29.74 in 6.2 mi ENE 18.4 mph - N/A   Mostly Cloudy
5:00 PM 86.0 °F 99.3 °F 78.8 °F 79% 29.74 in 6.2 mi East 19.6 mph - N/A   Mostly Cloudy
6:00 PM 85 °F - 77 °F 70% 29.76 in 9 mi ENE 16.1 mph - -   Haze
6:00 PM 84.2 °F 94.1 °F 77.0 °F 79% 29.74 in 6.2 mi ENE 16.1 mph - N/A   Mostly Cloudy
7:00 PM 84.2 °F 92.3 °F 75.2 °F 74% 29.80 in 6.2 mi East 20.7 mph - N/A   Mostly Cloudy
8:00 PM 86.0 °F 93.4 °F 73.4 °F 66% 29.80 in 6.2 mi East 23.0 mph - N/A   Mostly Cloudy